�N����,����,�~����,�C��,���x,�C��,����,���ϕ���,�ő�u�ԕ���,�ő厞����,���˗�,�I�_���x,�n�����x,�ő啗���N��,DTYPE
"16/07/03","00:10",0.0,25.9,83.0,1004.1,336.9,0.8,1.6,348.9,0.00,22.8,25.6,"00:05:04",1
"16/07/03","00:20",0.0,25.8,83.3,1004.1,325.5,0.5,1.6,348.0,0.00,22.8,25.7,"00:11:44",1
"16/07/03","00:30",0.0,25.8,83.9,1004.1,322.0,0.7,1.3,355.9,0.00,22.9,25.7,"00:22:16",1
"16/07/03","00:40",0.0,25.9,84.1,1003.8,334.3,1.0,2.1,346.8,0.00,23.0,25.7,"00:37:28",1
"16/07/03","00:50",0.0,25.9,83.8,1004.1,336.2,1.0,1.7,359.1,0.00,23.0,25.7,"00:48:56",1
"16/07/03","01:00",0.0,26.0,83.4,1004.1,306.0,0.3,0.9,323.9,0.00,23.0,25.6,"00:50:40",1
"16/07/03","01:10",0.0,25.8,83.9,1003.6,279.2,0.6,1.3,342.9,0.00,22.9,25.3,"01:09:36",1
"16/07/03","01:20",0.0,25.6,84.6,1003.8,260.3,0.2,0.8,354.7,0.00,22.9,25.5,"01:10:16",1
"16/07/03","01:30",0.0,25.4,85.2,1004.1,317.0,0.3,0.8,329.9,0.00,22.8,25.5,"01:24:32",1
"16/07/03","01:40",0.0,25.3,86.5,1003.8,348.7,0.6,1.3,344.0,0.00,22.9,25.4,"01:39:12",1
"16/07/03","01:50",0.0,25.2,87.1,1004.1,327.5,0.6,1.0,340.5,0.00,22.9,25.4,"01:40:40",1
"16/07/03","02:00",0.0,25.3,87.4,1004.1,333.6,0.3,1.0,355.5,0.00,23.1,25.4,"01:59:20",1
"16/07/03","02:10",0.0,25.3,87.5,1004.3,308.4,0.5,1.0,355.8,0.00,23.1,25.5,"02:00:08",1
"16/07/03","02:20",0.0,25.3,87.8,1004.1,339.3,0.5,0.9,0.8,0.00,23.2,25.3,"02:11:52",1
"16/07/03","02:30",0.0,25.4,87.8,1003.8,328.3,0.3,1.0,341.5,0.00,23.3,25.3,"02:20:48",1
"16/07/03","02:40",0.0,25.5,87.5,1003.6,318.1,0.2,0.6,37.4,0.00,23.3,25.2,"02:39:04",1
"16/07/03","02:50",0.0,25.7,86.8,1003.8,191.5,0.2,1.0,126.1,0.00,23.4,25.2,"02:47:36",1
"16/07/03","03:00",0.0,26.0,85.4,1003.6,238.3,0.6,1.9,235.1,0.00,23.4,25.2,"02:56:00",1
"16/07/03","03:10",0.0,26.2,84.5,1003.8,252.4,0.5,1.9,232.5,0.00,23.4,25.3,"03:00:56",1
"16/07/03","03:20",0.0,26.3,83.9,1003.6,205.4,0.7,2.7,222.8,0.00,23.4,25.3,"03:13:52",1
"16/07/03","03:30",0.0,26.4,83.6,1003.4,347.1,0.7,2.9,237.2,0.00,23.4,25.2,"03:28:00",1
"16/07/03","03:40",0.0,26.3,83.4,1003.6,304.4,0.6,1.6,231.5,0.00,23.3,25.2,"03:30:16",1
"16/07/03","03:50",0.0,26.2,83.5,1003.6,332.6,0.8,2.0,344.8,0.00,23.2,25.2,"03:40:16",1
"16/07/03","04:00",0.0,26.1,83.9,1003.4,12.7,0.3,0.9,336.6,0.00,23.2,25.3,"03:54:24",1
"16/07/03","04:10",0.0,26.2,83.7,1003.6,253.3,0.7,2.2,220.0,0.00,23.3,25.2,"04:05:04",1
"16/07/03","04:20",0.0,26.4,82.5,1003.6,255.5,0.8,1.9,119.8,0.00,23.2,25.2,"04:11:20",1
"16/07/03","04:30",0.0,26.5,81.7,1003.6,246.9,0.6,1.6,236.0,0.00,23.2,25.1,"04:21:44",1
"16/07/03","04:40",0.0,26.4,81.7,1004.1,313.8,0.6,1.3,335.8,0.00,23.1,25.3,"04:32:48",1
"16/07/03","04:50",0.0,26.6,80.9,1004.1,270.7,0.8,2.0,345.4,0.00,23.1,24.8,"04:46:24",1
"16/07/03","05:00",0.0,26.9,79.7,1004.1,263.5,1.2,3.9,225.6,0.00,23.1,25.0,"04:58:00",1
"16/07/03","05:10",0.0,26.9,79.3,1004.1,272.9,1.1,3.4,232.6,0.00,23.1,25.2,"05:04:08",1
"16/07/03","05:20",0.0,26.9,79.5,1004.5,268.1,0.7,2.1,238.2,0.00,23.1,24.9,"05:16:24",1
"16/07/03","05:30",0.0,27.0,79.1,1004.8,277.9,0.7,2.4,216.6,0.00,23.1,24.8,"05:26:16",1
"16/07/03","05:40",0.0,27.2,78.7,1004.3,259.8,1.2,3.5,253.8,0.00,23.2,24.8,"05:34:40",1
"16/07/03","05:50",0.0,27.2,78.0,1004.1,263.7,1.1,4.0,343.1,0.01,23.1,24.9,"05:44:40",1
"16/07/03","06:00",0.0,27.2,78.4,1004.5,261.9,1.0,2.6,243.7,0.01,23.2,25.0,"05:59:04",1
"16/07/03","06:10",0.0,27.2,78.2,1004.5,276.3,0.8,2.4,229.6,0.02,23.1,25.0,"06:06:32",1
"16/07/03","06:20",0.0,27.5,77.9,1004.3,278.5,0.8,3.1,230.5,0.04,23.3,24.9,"06:10:02",1
"16/07/03","06:30",0.0,27.7,77.7,1004.3,251.9,1.2,4.1,220.1,0.04,23.5,24.9,"06:21:44",1
"16/07/03","06:40",0.0,27.7,77.2,1004.3,253.3,1.2,4.0,230.9,0.05,23.4,25.2,"06:38:00",1
"16/07/03","06:50",0.0,27.8,77.6,1004.5,236.7,1.7,6.4,203.4,0.04,23.6,25.0,"06:43:20",1
"16/07/03","07:00",0.0,28.1,77.1,1004.3,238.8,1.3,4.5,229.8,0.07,23.7,25.1,"06:59:52",1
"16/07/03","07:10",0.0,28.2,76.4,1004.8,237.3,1.6,4.8,233.0,0.08,23.7,25.3,"07:04:40",1
"16/07/03","07:20",0.0,28.2,76.1,1004.3,248.9,0.8,3.7,221.5,0.06,23.6,25.2,"07:17:20",1
"16/07/03","07:30",0.0,28.3,77.2,1004.8,216.4,1.5,4.9,234.9,0.08,24.0,25.2,"07:21:44",1
"16/07/03","07:40",0.0,28.3,75.5,1004.1,227.4,1.3,3.7,186.4,0.08,23.6,25.2,"07:34:00",1
"16/07/03","07:50",0.0,28.2,76.6,1004.5,224.1,1.2,3.6,222.8,0.05,23.7,25.2,"07:47:20",1
"16/07/03","08:00",0.0,28.2,76.3,1004.3,239.8,1.0,5.0,223.3,0.06,23.7,25.3,"07:57:04",1
"16/07/03","08:10",0.0,28.4,75.9,1004.1,245.6,0.7,2.2,216.0,0.08,23.8,25.3,"08:04:56",1
"16/07/03","08:20",0.0,28.4,75.5,1004.3,302.8,0.8,3.6,22.9,0.06,23.7,25.6,"08:11:20",1
"16/07/03","08:30",0.0,28.5,75.6,1004.1,213.2,0.7,2.7,211.9,0.06,23.8,25.3,"08:29:12",1
"16/07/03","08:40",0.0,28.8,75.1,1003.6,230.7,0.8,2.4,223.0,0.12,24.0,25.7,"08:30:24",1
"16/07/03","08:50",0.0,28.8,74.1,1003.6,191.0,1.3,4.8,207.6,0.09,23.8,25.6,"08:46:48",1
"16/07/03","09:00",0.0,28.8,74.3,1003.8,231.3,1.1,3.3,226.6,0.11,23.8,25.7,"08:54:32",1
"16/07/03","09:10",0.0,28.8,74.1,1004.1,237.4,1.1,3.1,207.9,0.07,23.8,25.6,"09:08:56",1
"16/07/03","09:20",0.0,28.8,74.9,1004.3,250.0,0.6,3.3,227.9,0.09,23.9,25.7,"09:12:32",1
"16/07/03","09:30",0.0,28.9,74.9,1004.1,217.2,1.1,2.8,219.5,0.10,24.0,25.7,"09:22:48",1
"16/07/03","09:40",0.0,29.3,72.6,1004.3,247.5,0.6,2.9,230.5,0.16,23.9,25.8,"09:32:56",1
"16/07/03","09:50",0.0,30.4,71.2,1004.8,319.1,0.6,1.8,223.2,0.31,24.6,25.8,"09:44:56",1
"16/07/03","10:00",0.0,31.1,68.4,1005.0,244.9,0.7,2.2,219.0,0.48,24.6,25.9,"09:55:36",1
"16/07/03","10:10",0.0,31.9,65.6,1005.7,269.7,0.6,2.0,198.0,0.54,24.7,26.2,"10:05:04",1
"16/07/03","10:20",0.0,31.6,65.2,1006.0,212.8,1.2,5.0,220.0,0.55,24.3,26.5,"10:18:08",1
"16/07/03","10:30",0.0,29.9,68.6,1005.7,205.4,1.1,4.3,224.8,0.13,23.5,26.7,"10:25:28",1
"16/07/03","10:40",0.0,29.8,69.8,1005.2,254.0,0.8,3.1,230.8,0.11,23.7,26.9,"10:36:48",1
"16/07/03","10:50",0.0,29.9,69.5,1004.8,290.6,0.5,2.0,234.1,0.14,23.8,26.6,"10:45:44",1
"16/07/03","11:00",0.0,29.8,69.4,1004.8,310.1,0.5,1.4,258.1,0.13,23.6,26.8,"10:54:24",1
"16/07/03","11:10",0.0,30.8,68.4,1005.0,219.1,1.0,3.6,209.0,0.31,24.3,26.8,"11:06:00",1
"16/07/03","11:20",0.0,30.1,69.1,1004.8,216.5,1.0,2.9,224.3,0.15,23.8,27.0,"11:12:08",1
"16/07/03","11:30",0.0,30.5,69.5,1004.8,29.6,0.6,2.8,5.4,0.19,24.3,27.0,"11:20:32",1
"16/07/03","11:40",0.0,32.3,67.6,1005.0,32.5,0.5,1.6,359.6,0.44,25.6,27.3,"11:35:36",1
"16/07/03","11:50",0.0,32.2,64.4,1005.2,265.1,0.6,2.6,214.2,0.46,24.7,27.3,"11:41:44",1
"16/07/03","12:00",0.0,30.8,66.0,1005.7,226.1,0.8,2.5,183.5,0.17,23.8,27.5,"11:54:08",1
"16/07/03","12:10",0.0,31.9,65.2,1005.5,214.4,0.6,2.6,226.9,0.33,24.6,27.6,"12:05:44",1
"16/07/03","12:20",0.0,33.1,60.7,1006.0,256.4,1.0,4.4,208.2,0.67,24.5,27.9,"12:19:04",1
"16/07/03","12:30",0.0,32.8,61.2,1005.7,265.2,0.8,2.2,336.6,0.49,24.4,27.9,"12:24:48",1
"16/07/03","12:40",0.0,31.8,62.9,1005.7,265.4,0.7,4.2,223.0,0.28,23.9,28.1,"12:32:48",1
"16/07/03","12:50",0.0,31.6,63.7,1005.5,238.0,1.1,3.9,198.8,0.29,23.9,28.3,"12:46:48",1
"16/07/03","13:00",0.0,31.7,62.4,1005.2,232.1,1.2,3.2,212.9,0.24,23.7,28.3,"12:59:20",1
"16/07/03","13:10",0.0,31.7,63.1,1005.2,244.0,0.7,4.9,215.6,0.24,23.9,28.4,"13:08:56",1
"16/07/03","13:20",0.0,31.8,62.0,1004.8,238.4,1.6,4.3,186.2,0.26,23.7,28.3,"13:11:12",1
"16/07/03","13:30",0.0,33.3,62.8,1004.8,227.4,1.1,3.5,187.8,0.42,25.3,28.4,"13:26:00",1
"16/07/03","13:40",0.0,32.1,62.5,1005.0,223.0,1.1,4.0,231.5,0.29,24.1,28.3,"13:38:32",1
"16/07/03","13:50",0.0,31.3,63.6,1005.2,242.4,1.3,4.0,228.5,0.14,23.6,28.4,"13:40:48",1
"16/07/03","14:00",0.0,31.4,64.6,1004.8,252.9,0.7,3.2,228.3,0.17,24.0,28.6,"13:51:36",1
"16/07/03","14:10",0.0,31.2,63.6,1004.5,277.6,0.3,2.2,230.6,0.13,23.5,28.5,"14:02:56",1
"16/07/03","14:20",0.0,31.1,64.8,1004.5,227.6,0.3,1.9,39.6,0.13,23.7,28.4,"14:11:04",1
"16/07/03","14:30",0.0,31.5,63.4,1004.5,293.6,0.6,2.1,238.3,0.20,23.7,28.5,"14:22:42",1
"16/07/03","14:40",0.0,31.5,63.7,1004.1,235.1,0.7,3.5,210.5,0.22,23.8,28.6,"14:35:12",1
"16/07/03","14:50",0.0,31.6,66.0,1004.3,267.0,0.5,1.7,204.3,0.15,24.5,28.6,"14:44:58",1
"16/07/03","15:00",0.0,31.4,65.8,1004.3,345.4,0.2,1.2,17.0,0.08,24.3,28.2,"14:52:24",1
"16/07/03","15:10",0.0,31.3,66.7,1004.1,339.0,0.3,1.3,10.0,0.12,24.4,28.5,"15:01:14",1
"16/07/03","15:20",0.0,31.3,65.7,1004.1,351.2,0.1,1.2,344.0,0.05,24.1,28.5,"15:10:48",1
"16/07/03","15:30",0.0,30.9,66.5,1003.8,270.6,0.2,1.3,212.3,0.09,24.0,28.4,"15:28:56",1
"16/07/03","15:40",0.0,32.3,60.1,1003.6,206.0,1.0,2.8,226.6,0.25,23.6,28.4,"15:39:52",1
"16/07/03","15:50",0.0,32.5,63.3,1003.6,138.2,0.2,0.8,131.4,0.10,24.7,28.5,"15:43:52",1
"16/07/03","16:00",0.0,31.7,65.9,1003.6,217.5,0.6,1.9,227.9,0.08,24.6,28.3,"15:56:32",1
"16/07/03","16:10",0.0,31.9,61.1,1003.6,200.4,0.6,2.2,235.7,0.12,23.5,28.3,"16:08:40",1
"16/07/03","16:20",0.0,32.4,58.3,1003.6,246.5,0.8,2.9,220.0,0.17,23.2,28.3,"16:13:12",1
"16/07/03","16:30",0.0,31.8,59.2,1004.1,257.3,0.8,4.5,12.4,0.05,22.9,28.3,"16:27:28",1
"16/07/03","16:40",0.0,31.6,61.0,1002.9,313.7,0.5,1.8,347.2,0.08,23.2,28.2,"16:39:20",1
"16/07/03","16:50",0.0,31.4,59.8,1002.9,295.2,0.6,2.8,12.8,0.04,22.7,28.2,"16:46:56",1
"16/07/03","17:00",0.0,31.4,59.6,1003.6,283.6,0.7,2.9,255.5,0.04,22.6,27.9,"16:55:36",1
"16/07/03","17:10",0.0,31.2,62.2,1003.6,303.4,0.6,2.2,7.4,0.01,23.1,27.9,"17:09:52",1
"16/07/03","17:20",0.0,29.9,67.3,1002.9,355.3,2.6,5.7,12.4,0.05,23.2,28.1,"17:17:20",1
"16/07/03","17:30",0.0,28.8,70.4,1002.9,354.6,2.5,6.3,349.7,0.02,22.9,27.9,"17:26:32",1
"16/07/03","17:40",0.0,28.2,74.0,1003.1,2.5,1.6,5.2,0.8,0.02,23.2,27.7,"17:31:36",1
"16/07/03","17:50",0.0,27.6,77.1,1003.6,348.5,1.6,3.5,348.6,0.03,23.3,27.7,"17:48:00",1
"16/07/03","18:00",0.0,27.2,78.9,1003.8,313.4,0.8,1.8,5.3,0.02,23.3,27.4,"17:50:08",1
"16/07/03","18:10",0.0,27.0,79.2,1004.3,317.6,1.0,3.5,344.3,0.01,23.1,27.7,"18:05:12",1
"16/07/03","18:20",0.0,27.0,78.7,1004.5,312.4,0.8,2.1,338.1,0.01,23.0,27.4,"18:15:52",1
"16/07/03","18:30",0.0,27.0,78.9,1004.5,306.4,0.8,1.4,339.1,0.00,23.1,27.2,"18:25:36",1
"16/07/03","18:40",0.0,26.9,79.5,1004.5,319.4,0.7,1.7,340.6,0.00,23.1,27.3,"18:32:48",1
"16/07/03","18:50",0.0,26.7,79.0,1004.8,336.3,1.5,3.6,344.2,0.00,22.8,27.4,"18:46:24",1
"16/07/03","19:00",0.0,26.7,79.0,1005.0,315.7,1.0,2.2,333.4,0.00,22.8,27.2,"18:50:08",1
"16/07/03","19:10",0.0,26.6,79.7,1005.0,316.6,1.1,2.4,338.5,0.00,22.8,27.0,"19:01:04",1
"16/07/03","19:20",0.0,26.4,79.9,1005.0,340.1,1.0,2.7,348.1,0.00,22.7,26.9,"19:19:28",1
"16/07/03","19:30",0.0,26.4,80.2,1005.2,338.1,1.0,2.5,346.7,0.00,22.8,26.7,"19:27:20",1
"16/07/03","19:40",0.0,26.3,80.8,1005.7,324.2,1.0,2.0,351.4,0.00,22.8,26.8,"19:31:52",1
"16/07/03","19:50",0.0,26.2,81.5,1006.0,315.7,0.7,1.8,350.9,0.00,22.8,26.9,"19:40:08",1
"16/07/03","20:00",0.0,26.1,82.1,1006.0,327.0,0.8,1.4,337.4,0.00,22.8,26.9,"19:50:32",1
"16/07/03","20:10",0.0,26.0,83.3,1006.0,323.4,0.6,1.2,348.2,0.00,23.0,26.8,"20:08:16",1
"16/07/03","20:20",0.0,25.9,84.3,1006.0,325.6,0.6,1.3,345.7,0.00,23.1,26.7,"20:10:56",1
"16/07/03","20:30",0.0,25.8,85.4,1005.7,344.0,0.8,1.3,345.4,0.00,23.2,26.5,"20:26:32",1
"16/07/03","20:40",0.0,25.6,86.4,1006.0,341.7,0.6,1.0,19.8,0.00,23.2,26.4,"20:32:08",1
"16/07/03","20:50",0.0,25.3,87.1,1006.4,316.9,0.7,1.7,350.0,0.00,23.0,26.4,"20:41:20",1
"16/07/03","21:00",0.0,25.1,87.5,1006.2,333.2,1.0,2.0,349.5,0.00,22.9,26.4,"20:50:40",1
"16/07/03","21:10",0.0,24.9,87.9,1006.2,336.2,0.8,1.6,352.7,0.00,22.8,26.4,"21:01:04",1
"16/07/03","21:20",0.0,24.8,88.2,1006.4,320.4,0.7,1.1,331.5,0.00,22.8,26.1,"21:10:24",1
"16/07/03","21:30",0.0,24.7,88.7,1006.4,300.5,0.6,0.9,323.9,0.00,22.7,26.2,"21:22:56",1
"16/07/03","21:40",0.0,24.7,89.0,1006.2,324.7,0.7,1.8,346.9,0.00,22.8,26.3,"21:32:32",1
"16/07/03","21:50",0.0,24.7,89.0,1005.7,306.4,0.5,1.0,324.4,0.00,22.8,26.2,"21:40:16",1
"16/07/03","22:00",0.0,24.6,89.1,1006.4,296.1,0.5,0.9,324.2,0.00,22.7,25.9,"21:55:28",1
"16/07/03","22:10",0.0,24.5,89.3,1006.4,285.9,0.5,0.9,325.1,0.00,22.7,25.9,"22:03:04",1
"16/07/03","22:20",0.0,24.4,89.5,1006.0,289.8,0.5,0.8,307.8,0.00,22.6,25.9,"22:18:48",1
"16/07/03","22:30",0.0,24.3,89.6,1006.4,287.4,0.5,0.8,263.8,0.00,22.5,25.8,"22:22:48",1
"16/07/03","22:40",0.0,24.3,89.8,1006.2,286.3,0.6,0.8,276.2,0.00,22.6,25.8,"22:30:16",1
"16/07/03","22:50",0.0,24.2,89.9,1006.2,311.7,0.6,1.0,320.5,0.00,22.5,25.7,"22:41:52",1
"16/07/03","23:00",0.0,24.1,90.5,1006.2,334.2,1.0,1.4,338.5,0.00,22.5,25.7,"22:52:32",1
"16/07/03","23:10",0.0,24.0,90.9,1006.2,312.3,0.7,1.6,344.4,0.00,22.5,25.7,"23:05:12",1
"16/07/03","23:20",0.0,24.0,91.3,1006.2,292.0,0.5,0.9,323.9,0.00,22.5,25.7,"23:12:32",1
"16/07/03","23:30",0.0,24.0,91.3,1006.4,292.1,0.6,0.8,300.8,0.00,22.5,25.5,"23:24:00",1
"16/07/03","23:40",0.0,24.0,91.3,1006.2,298.0,0.5,0.6,325.1,0.00,22.5,25.6,"23:33:28",1
"16/07/03","23:50",0.0,24.0,91.4,1006.4,290.8,0.5,0.9,316.6,0.00,22.6,25.6,"23:40:48",1
"16/07/03","24:00",0.0,23.9,91.4,1006.4,312.4,0.7,1.0,319.6,0.00,22.5,25.4,"23:50:08",1
